User: anonymous   Login
Location: CNYAC Observatory
(43.2150°N, 74.9500°W)
Time: 06:12:14
(UTC-05:00)
Language:

Meteor 1-22 Rocket - Orbit

View from above orbital plane
View from above orbital plane
View from above satellite
View from above satellite

Ground track
Ground track

The orbit data is extracted from the following two-line orbital elements,

1 08294U 75087B   15062.57145052  .00000105  00000-0  51718-4 0  9995
2 08294 081.2113 118.0565 0104794 241.6095 117.4481 14.08501717 27075
Epoch (UTC): 03 March 2015 13:42:53
Eccentricity: 0.0104794
inclination: 81.2113°
perigee height: 788 km
apogee height: 940 km
right ascension of ascending node: 118.0565°
argument of perigee: 241.6095°
revolutions per day: 14.08501717
mean anomaly at epoch: 117.4481°
orbit number at epoch: 2707

The dashed part of the orbit path shows where the satellite is in the earth's shadow,  

DLR